User: anonymous   Login
Location: Byszew
(52.1813°N, 19.2693°E)
Time: 05:44:01
(UTC+00:00)
Language:

Cosmos 2366 rocket - Orbit

View from above orbital plane
View from above orbital plane
View from above satellite
View from above satellite

Ground track
Ground track

The orbit data is extracted from the following two-line orbital elements,

1 25893U 99045B   21127.90210664  .00000040  00000-0  24414-4 0  9998
2 25893  82.9297  46.9378 0030044  82.2132 346.4370 13.76549952 90111
Epoch (UTC): 07 May 2021 21:39:02
Eccentricity: 0.0030044
inclination: 82.9297°
perigee height: 954 km
apogee height: 998 km
right ascension of ascending node: 46.9378°
argument of perigee: 82.2132°
revolutions per day: 13.76549952
mean anomaly at epoch: 346.4370°
orbit number at epoch: 9011

The dashed part of the orbit path shows where the satellite is in the earth's shadow,  

DLR